<?xml version="1.0"?>
<gpx xmlns="http://www.topografix.com/GPX/1/1" xmlns:xsi="http://www.w3.org/2001/XMLSchema-instance" version="1.1" creator="GPX RubyGem 1.0.0 -- http://dougfales.github.io/gpx/" xsi:schemaLocation="http://www.topografix.com/GPX/1/1 http://www.topografix.com/GPX/1/1/gpx.xsd">
  <metadata>
    <name/>
    <time>2026-05-08T22:11:03+00:00</time>
    <bound minlat="90.0" minlon="180.0" maxlat="-90.0" maxlon="-180.0"/>
  </metadata>
  <trk>
    <name/>
    <trkseg>
      <trkpt lat="42.797521" lon="-1.704739">
        <time>1970-01-01T00:00:00+00:00</time>
        <ele>477.0</ele>
      </trkpt>
      <trkpt lat="42.797657" lon="-1.705459">
        <time>1970-01-01T00:00:00+00:00</time>
        <ele>478.0</ele>
      </trkpt>
      <trkpt lat="42.797602" lon="-1.705521">
        <time>1970-01-01T00:00:00+00:00</time>
        <ele>478.0</ele>
      </trkpt>
      <trkpt lat="42.797545" lon="-1.705551">
        <time>1970-01-01T00:00:00+00:00</time>
        <ele>477.0</ele>
      </trkpt>
      <trkpt lat="42.797546" lon="-1.705757">
        <time>1970-01-01T00:00:00+00:00</time>
        <ele>478.0</ele>
      </trkpt>
      <trkpt lat="42.79758" lon="-1.706017">
        <time>1970-01-01T00:00:00+00:00</time>
        <ele>479.0</ele>
      </trkpt>
      <trkpt lat="42.797566" lon="-1.706062">
        <time>1970-01-01T00:00:00+00:00</time>
        <ele>479.0</ele>
      </trkpt>
      <trkpt lat="42.797762" lon="-1.706032">
        <time>1970-01-01T00:00:00+00:00</time>
        <ele>481.0</ele>
      </trkpt>
      <trkpt lat="42.798026" lon="-1.705916">
        <time>1970-01-01T00:00:00+00:00</time>
        <ele>480.0</ele>
      </trkpt>
      <trkpt lat="42.798221" lon="-1.70655">
        <time>1970-01-01T00:00:00+00:00</time>
        <ele>483.0</ele>
      </trkpt>
      <trkpt lat="42.798319" lon="-1.706961">
        <time>1970-01-01T00:00:00+00:00</time>
        <ele>484.0</ele>
      </trkpt>
      <trkpt lat="42.798441" lon="-1.707789">
        <time>1970-01-01T00:00:00+00:00</time>
        <ele>485.0</ele>
      </trkpt>
      <trkpt lat="42.798496" lon="-1.708075">
        <time>1970-01-01T00:00:00+00:00</time>
        <ele>487.0</ele>
      </trkpt>
      <trkpt lat="42.798577" lon="-1.708387">
        <time>1970-01-01T00:00:00+00:00</time>
        <ele>488.0</ele>
      </trkpt>
      <trkpt lat="42.798717" lon="-1.70883">
        <time>1970-01-01T00:00:00+00:00</time>
        <ele>490.0</ele>
      </trkpt>
      <trkpt lat="42.798455" lon="-1.709563">
        <time>1970-01-01T00:00:00+00:00</time>
        <ele>490.0</ele>
      </trkpt>
      <trkpt lat="42.798445" lon="-1.709696">
        <time>1970-01-01T00:00:00+00:00</time>
        <ele>490.0</ele>
      </trkpt>
      <trkpt lat="42.798486" lon="-1.711012">
        <time>1970-01-01T00:00:00+00:00</time>
        <ele>491.0</ele>
      </trkpt>
      <trkpt lat="42.798518" lon="-1.711867">
        <time>1970-01-01T00:00:00+00:00</time>
        <ele>493.0</ele>
      </trkpt>
      <trkpt lat="42.798546" lon="-1.712089">
        <time>1970-01-01T00:00:00+00:00</time>
        <ele>493.0</ele>
      </trkpt>
      <trkpt lat="42.7986" lon="-1.71221">
        <time>1970-01-01T00:00:00+00:00</time>
        <ele>493.0</ele>
      </trkpt>
      <trkpt lat="42.798859" lon="-1.7125">
        <time>1970-01-01T00:00:00+00:00</time>
        <ele>496.0</ele>
      </trkpt>
      <trkpt lat="42.799401" lon="-1.713172">
        <time>1970-01-01T00:00:00+00:00</time>
        <ele>503.0</ele>
      </trkpt>
      <trkpt lat="42.799489" lon="-1.713253">
        <time>1970-01-01T00:00:00+00:00</time>
        <ele>504.0</ele>
      </trkpt>
      <trkpt lat="42.799445" lon="-1.713363">
        <time>1970-01-01T00:00:00+00:00</time>
        <ele>504.0</ele>
      </trkpt>
      <trkpt lat="42.799372" lon="-1.713598">
        <time>1970-01-01T00:00:00+00:00</time>
        <ele>503.0</ele>
      </trkpt>
      <trkpt lat="42.799285" lon="-1.713718">
        <time>1970-01-01T00:00:00+00:00</time>
        <ele>501.0</ele>
      </trkpt>
      <trkpt lat="42.799222" lon="-1.713879">
        <time>1970-01-01T00:00:00+00:00</time>
        <ele>500.0</ele>
      </trkpt>
      <trkpt lat="42.799344" lon="-1.714097">
        <time>1970-01-01T00:00:00+00:00</time>
        <ele>502.0</ele>
      </trkpt>
      <trkpt lat="42.799455" lon="-1.714429">
        <time>1970-01-01T00:00:00+00:00</time>
        <ele>503.0</ele>
      </trkpt>
      <trkpt lat="42.799483" lon="-1.714589">
        <time>1970-01-01T00:00:00+00:00</time>
        <ele>504.0</ele>
      </trkpt>
      <trkpt lat="42.799521" lon="-1.71521">
        <time>1970-01-01T00:00:00+00:00</time>
        <ele>508.0</ele>
      </trkpt>
      <trkpt lat="42.799433" lon="-1.715624">
        <time>1970-01-01T00:00:00+00:00</time>
        <ele>509.0</ele>
      </trkpt>
      <trkpt lat="42.799412" lon="-1.715761">
        <time>1970-01-01T00:00:00+00:00</time>
        <ele>509.0</ele>
      </trkpt>
      <trkpt lat="42.799566" lon="-1.716436">
        <time>1970-01-01T00:00:00+00:00</time>
        <ele>509.0</ele>
      </trkpt>
      <trkpt lat="42.799669" lon="-1.716763">
        <time>1970-01-01T00:00:00+00:00</time>
        <ele>510.0</ele>
      </trkpt>
      <trkpt lat="42.799706" lon="-1.716971">
        <time>1970-01-01T00:00:00+00:00</time>
        <ele>511.0</ele>
      </trkpt>
      <trkpt lat="42.799711" lon="-1.717292">
        <time>1970-01-01T00:00:00+00:00</time>
        <ele>511.0</ele>
      </trkpt>
      <trkpt lat="42.799668" lon="-1.717716">
        <time>1970-01-01T00:00:00+00:00</time>
        <ele>512.0</ele>
      </trkpt>
      <trkpt lat="42.799661" lon="-1.718053">
        <time>1970-01-01T00:00:00+00:00</time>
        <ele>515.0</ele>
      </trkpt>
      <trkpt lat="42.799695" lon="-1.718254">
        <time>1970-01-01T00:00:00+00:00</time>
        <ele>516.0</ele>
      </trkpt>
      <trkpt lat="42.799791" lon="-1.71851">
        <time>1970-01-01T00:00:00+00:00</time>
        <ele>519.0</ele>
      </trkpt>
      <trkpt lat="42.800312" lon="-1.719949">
        <time>1970-01-01T00:00:00+00:00</time>
        <ele>528.0</ele>
      </trkpt>
      <trkpt lat="42.800393" lon="-1.720459">
        <time>1970-01-01T00:00:00+00:00</time>
        <ele>531.0</ele>
      </trkpt>
      <trkpt lat="42.800495" lon="-1.720796">
        <time>1970-01-01T00:00:00+00:00</time>
        <ele>533.0</ele>
      </trkpt>
      <trkpt lat="42.800581" lon="-1.720886">
        <time>1970-01-01T00:00:00+00:00</time>
        <ele>534.0</ele>
      </trkpt>
      <trkpt lat="42.80065" lon="-1.721076">
        <time>1970-01-01T00:00:00+00:00</time>
        <ele>536.0</ele>
      </trkpt>
      <trkpt lat="42.800672" lon="-1.721292">
        <time>1970-01-01T00:00:00+00:00</time>
        <ele>536.0</ele>
      </trkpt>
      <trkpt lat="42.800646" lon="-1.721709">
        <time>1970-01-01T00:00:00+00:00</time>
        <ele>536.0</ele>
      </trkpt>
      <trkpt lat="42.80064" lon="-1.721779">
        <time>1970-01-01T00:00:00+00:00</time>
        <ele>536.0</ele>
      </trkpt>
      <trkpt lat="42.800708" lon="-1.722227">
        <time>1970-01-01T00:00:00+00:00</time>
        <ele>533.0</ele>
      </trkpt>
      <trkpt lat="42.800733" lon="-1.722243">
        <time>1970-01-01T00:00:00+00:00</time>
        <ele>533.0</ele>
      </trkpt>
      <trkpt lat="42.800751" lon="-1.722295">
        <time>1970-01-01T00:00:00+00:00</time>
        <ele>532.0</ele>
      </trkpt>
      <trkpt lat="42.800749" lon="-1.722377">
        <time>1970-01-01T00:00:00+00:00</time>
        <ele>531.0</ele>
      </trkpt>
      <trkpt lat="42.800631" lon="-1.72295">
        <time>1970-01-01T00:00:00+00:00</time>
        <ele>527.0</ele>
      </trkpt>
      <trkpt lat="42.800523" lon="-1.723363">
        <time>1970-01-01T00:00:00+00:00</time>
        <ele>526.0</ele>
      </trkpt>
      <trkpt lat="42.800501" lon="-1.723671">
        <time>1970-01-01T00:00:00+00:00</time>
        <ele>528.0</ele>
      </trkpt>
      <trkpt lat="42.800503" lon="-1.723791">
        <time>1970-01-01T00:00:00+00:00</time>
        <ele>528.0</ele>
      </trkpt>
      <trkpt lat="42.80053" lon="-1.723981">
        <time>1970-01-01T00:00:00+00:00</time>
        <ele>530.0</ele>
      </trkpt>
      <trkpt lat="42.800515" lon="-1.7241">
        <time>1970-01-01T00:00:00+00:00</time>
        <ele>533.0</ele>
      </trkpt>
      <trkpt lat="42.800492" lon="-1.724124">
        <time>1970-01-01T00:00:00+00:00</time>
        <ele>533.0</ele>
      </trkpt>
      <trkpt lat="42.800503" lon="-1.724305">
        <time>1970-01-01T00:00:00+00:00</time>
        <ele>537.0</ele>
      </trkpt>
      <trkpt lat="42.800439" lon="-1.724462">
        <time>1970-01-01T00:00:00+00:00</time>
        <ele>541.0</ele>
      </trkpt>
      <trkpt lat="42.800397" lon="-1.724942">
        <time>1970-01-01T00:00:00+00:00</time>
        <ele>547.0</ele>
      </trkpt>
      <trkpt lat="42.800341" lon="-1.725027">
        <time>1970-01-01T00:00:00+00:00</time>
        <ele>548.0</ele>
      </trkpt>
      <trkpt lat="42.800342" lon="-1.725233">
        <time>1970-01-01T00:00:00+00:00</time>
        <ele>550.0</ele>
      </trkpt>
      <trkpt lat="42.800243" lon="-1.725589">
        <time>1970-01-01T00:00:00+00:00</time>
        <ele>552.0</ele>
      </trkpt>
      <trkpt lat="42.800175" lon="-1.725725">
        <time>1970-01-01T00:00:00+00:00</time>
        <ele>552.0</ele>
      </trkpt>
      <trkpt lat="42.800127" lon="-1.725956">
        <time>1970-01-01T00:00:00+00:00</time>
        <ele>552.0</ele>
      </trkpt>
      <trkpt lat="42.800106" lon="-1.725954">
        <time>1970-01-01T00:00:00+00:00</time>
        <ele>552.0</ele>
      </trkpt>
      <trkpt lat="42.800106" lon="-1.725954">
        <time>1970-01-01T00:00:00+00:00</time>
        <ele>552.0</ele>
      </trkpt>
      <trkpt lat="42.800127" lon="-1.725956">
        <time>1970-01-01T00:00:00+00:00</time>
        <ele>552.0</ele>
      </trkpt>
      <trkpt lat="42.800175" lon="-1.725725">
        <time>1970-01-01T00:00:00+00:00</time>
        <ele>552.0</ele>
      </trkpt>
      <trkpt lat="42.800243" lon="-1.725589">
        <time>1970-01-01T00:00:00+00:00</time>
        <ele>552.0</ele>
      </trkpt>
      <trkpt lat="42.800342" lon="-1.725233">
        <time>1970-01-01T00:00:00+00:00</time>
        <ele>550.0</ele>
      </trkpt>
      <trkpt lat="42.800341" lon="-1.725027">
        <time>1970-01-01T00:00:00+00:00</time>
        <ele>548.0</ele>
      </trkpt>
      <trkpt lat="42.800397" lon="-1.724942">
        <time>1970-01-01T00:00:00+00:00</time>
        <ele>547.0</ele>
      </trkpt>
      <trkpt lat="42.800439" lon="-1.724462">
        <time>1970-01-01T00:00:00+00:00</time>
        <ele>541.0</ele>
      </trkpt>
      <trkpt lat="42.800503" lon="-1.724305">
        <time>1970-01-01T00:00:00+00:00</time>
        <ele>537.0</ele>
      </trkpt>
      <trkpt lat="42.800492" lon="-1.724124">
        <time>1970-01-01T00:00:00+00:00</time>
        <ele>533.0</ele>
      </trkpt>
      <trkpt lat="42.800515" lon="-1.7241">
        <time>1970-01-01T00:00:00+00:00</time>
        <ele>533.0</ele>
      </trkpt>
      <trkpt lat="42.80053" lon="-1.723981">
        <time>1970-01-01T00:00:00+00:00</time>
        <ele>530.0</ele>
      </trkpt>
      <trkpt lat="42.800503" lon="-1.723791">
        <time>1970-01-01T00:00:00+00:00</time>
        <ele>528.0</ele>
      </trkpt>
      <trkpt lat="42.800501" lon="-1.723671">
        <time>1970-01-01T00:00:00+00:00</time>
        <ele>528.0</ele>
      </trkpt>
      <trkpt lat="42.800523" lon="-1.723363">
        <time>1970-01-01T00:00:00+00:00</time>
        <ele>526.0</ele>
      </trkpt>
      <trkpt lat="42.800631" lon="-1.72295">
        <time>1970-01-01T00:00:00+00:00</time>
        <ele>527.0</ele>
      </trkpt>
      <trkpt lat="42.800749" lon="-1.722377">
        <time>1970-01-01T00:00:00+00:00</time>
        <ele>531.0</ele>
      </trkpt>
      <trkpt lat="42.800751" lon="-1.722295">
        <time>1970-01-01T00:00:00+00:00</time>
        <ele>532.0</ele>
      </trkpt>
      <trkpt lat="42.800733" lon="-1.722243">
        <time>1970-01-01T00:00:00+00:00</time>
        <ele>533.0</ele>
      </trkpt>
      <trkpt lat="42.800708" lon="-1.722227">
        <time>1970-01-01T00:00:00+00:00</time>
        <ele>533.0</ele>
      </trkpt>
      <trkpt lat="42.80064" lon="-1.721779">
        <time>1970-01-01T00:00:00+00:00</time>
        <ele>536.0</ele>
      </trkpt>
      <trkpt lat="42.800646" lon="-1.721709">
        <time>1970-01-01T00:00:00+00:00</time>
        <ele>536.0</ele>
      </trkpt>
      <trkpt lat="42.800672" lon="-1.721292">
        <time>1970-01-01T00:00:00+00:00</time>
        <ele>536.0</ele>
      </trkpt>
      <trkpt lat="42.80065" lon="-1.721076">
        <time>1970-01-01T00:00:00+00:00</time>
        <ele>536.0</ele>
      </trkpt>
      <trkpt lat="42.800581" lon="-1.720886">
        <time>1970-01-01T00:00:00+00:00</time>
        <ele>534.0</ele>
      </trkpt>
      <trkpt lat="42.800495" lon="-1.720796">
        <time>1970-01-01T00:00:00+00:00</time>
        <ele>533.0</ele>
      </trkpt>
      <trkpt lat="42.800393" lon="-1.720459">
        <time>1970-01-01T00:00:00+00:00</time>
        <ele>531.0</ele>
      </trkpt>
      <trkpt lat="42.800312" lon="-1.719949">
        <time>1970-01-01T00:00:00+00:00</time>
        <ele>528.0</ele>
      </trkpt>
      <trkpt lat="42.799791" lon="-1.71851">
        <time>1970-01-01T00:00:00+00:00</time>
        <ele>519.0</ele>
      </trkpt>
      <trkpt lat="42.799695" lon="-1.718254">
        <time>1970-01-01T00:00:00+00:00</time>
        <ele>516.0</ele>
      </trkpt>
      <trkpt lat="42.799661" lon="-1.718053">
        <time>1970-01-01T00:00:00+00:00</time>
        <ele>515.0</ele>
      </trkpt>
      <trkpt lat="42.799668" lon="-1.717716">
        <time>1970-01-01T00:00:00+00:00</time>
        <ele>512.0</ele>
      </trkpt>
      <trkpt lat="42.799711" lon="-1.717292">
        <time>1970-01-01T00:00:00+00:00</time>
        <ele>511.0</ele>
      </trkpt>
      <trkpt lat="42.799706" lon="-1.716971">
        <time>1970-01-01T00:00:00+00:00</time>
        <ele>511.0</ele>
      </trkpt>
      <trkpt lat="42.799669" lon="-1.716763">
        <time>1970-01-01T00:00:00+00:00</time>
        <ele>510.0</ele>
      </trkpt>
      <trkpt lat="42.799566" lon="-1.716436">
        <time>1970-01-01T00:00:00+00:00</time>
        <ele>509.0</ele>
      </trkpt>
      <trkpt lat="42.799412" lon="-1.715761">
        <time>1970-01-01T00:00:00+00:00</time>
        <ele>509.0</ele>
      </trkpt>
      <trkpt lat="42.799433" lon="-1.715624">
        <time>1970-01-01T00:00:00+00:00</time>
        <ele>509.0</ele>
      </trkpt>
      <trkpt lat="42.799521" lon="-1.71521">
        <time>1970-01-01T00:00:00+00:00</time>
        <ele>508.0</ele>
      </trkpt>
      <trkpt lat="42.799483" lon="-1.714589">
        <time>1970-01-01T00:00:00+00:00</time>
        <ele>504.0</ele>
      </trkpt>
      <trkpt lat="42.799455" lon="-1.714429">
        <time>1970-01-01T00:00:00+00:00</time>
        <ele>503.0</ele>
      </trkpt>
      <trkpt lat="42.799344" lon="-1.714097">
        <time>1970-01-01T00:00:00+00:00</time>
        <ele>502.0</ele>
      </trkpt>
      <trkpt lat="42.799222" lon="-1.713879">
        <time>1970-01-01T00:00:00+00:00</time>
        <ele>500.0</ele>
      </trkpt>
      <trkpt lat="42.799285" lon="-1.713718">
        <time>1970-01-01T00:00:00+00:00</time>
        <ele>501.0</ele>
      </trkpt>
      <trkpt lat="42.799372" lon="-1.713598">
        <time>1970-01-01T00:00:00+00:00</time>
        <ele>503.0</ele>
      </trkpt>
      <trkpt lat="42.799445" lon="-1.713363">
        <time>1970-01-01T00:00:00+00:00</time>
        <ele>504.0</ele>
      </trkpt>
      <trkpt lat="42.799489" lon="-1.713253">
        <time>1970-01-01T00:00:00+00:00</time>
        <ele>504.0</ele>
      </trkpt>
      <trkpt lat="42.799401" lon="-1.713172">
        <time>1970-01-01T00:00:00+00:00</time>
        <ele>503.0</ele>
      </trkpt>
      <trkpt lat="42.798859" lon="-1.7125">
        <time>1970-01-01T00:00:00+00:00</time>
        <ele>496.0</ele>
      </trkpt>
      <trkpt lat="42.7986" lon="-1.71221">
        <time>1970-01-01T00:00:00+00:00</time>
        <ele>493.0</ele>
      </trkpt>
      <trkpt lat="42.798546" lon="-1.712089">
        <time>1970-01-01T00:00:00+00:00</time>
        <ele>493.0</ele>
      </trkpt>
      <trkpt lat="42.798518" lon="-1.711867">
        <time>1970-01-01T00:00:00+00:00</time>
        <ele>493.0</ele>
      </trkpt>
      <trkpt lat="42.798486" lon="-1.711012">
        <time>1970-01-01T00:00:00+00:00</time>
        <ele>491.0</ele>
      </trkpt>
      <trkpt lat="42.798445" lon="-1.709696">
        <time>1970-01-01T00:00:00+00:00</time>
        <ele>490.0</ele>
      </trkpt>
      <trkpt lat="42.798455" lon="-1.709563">
        <time>1970-01-01T00:00:00+00:00</time>
        <ele>490.0</ele>
      </trkpt>
      <trkpt lat="42.798717" lon="-1.70883">
        <time>1970-01-01T00:00:00+00:00</time>
        <ele>490.0</ele>
      </trkpt>
      <trkpt lat="42.798577" lon="-1.708387">
        <time>1970-01-01T00:00:00+00:00</time>
        <ele>488.0</ele>
      </trkpt>
      <trkpt lat="42.798496" lon="-1.708075">
        <time>1970-01-01T00:00:00+00:00</time>
        <ele>487.0</ele>
      </trkpt>
      <trkpt lat="42.798441" lon="-1.707789">
        <time>1970-01-01T00:00:00+00:00</time>
        <ele>485.0</ele>
      </trkpt>
      <trkpt lat="42.798319" lon="-1.706961">
        <time>1970-01-01T00:00:00+00:00</time>
        <ele>484.0</ele>
      </trkpt>
      <trkpt lat="42.798221" lon="-1.70655">
        <time>1970-01-01T00:00:00+00:00</time>
        <ele>483.0</ele>
      </trkpt>
      <trkpt lat="42.798026" lon="-1.705916">
        <time>1970-01-01T00:00:00+00:00</time>
        <ele>480.0</ele>
      </trkpt>
      <trkpt lat="42.797762" lon="-1.706032">
        <time>1970-01-01T00:00:00+00:00</time>
        <ele>481.0</ele>
      </trkpt>
      <trkpt lat="42.797566" lon="-1.706062">
        <time>1970-01-01T00:00:00+00:00</time>
        <ele>479.0</ele>
      </trkpt>
      <trkpt lat="42.79758" lon="-1.706017">
        <time>1970-01-01T00:00:00+00:00</time>
        <ele>479.0</ele>
      </trkpt>
      <trkpt lat="42.797546" lon="-1.705757">
        <time>1970-01-01T00:00:00+00:00</time>
        <ele>478.0</ele>
      </trkpt>
      <trkpt lat="42.797545" lon="-1.705551">
        <time>1970-01-01T00:00:00+00:00</time>
        <ele>477.0</ele>
      </trkpt>
      <trkpt lat="42.797602" lon="-1.705521">
        <time>1970-01-01T00:00:00+00:00</time>
        <ele>478.0</ele>
      </trkpt>
      <trkpt lat="42.797657" lon="-1.705459">
        <time>1970-01-01T00:00:00+00:00</time>
        <ele>478.0</ele>
      </trkpt>
      <trkpt lat="42.797521" lon="-1.704739">
        <time>1970-01-01T00:00:00+00:00</time>
        <ele>477.0</ele>
      </trkpt>
    </trkseg>
  </trk>
</gpx>
